TimeMST,TemperatureF,Dew PointF,Humidity,Sea Level PressureIn,VisibilityMPH,Wind Direction,Wind SpeedMPH,Gust SpeedMPH,PrecipitationIn,Events,Conditions,WindDirDegrees,DateUTC
12:53 AM,-0.0,-2.9,88,30.23,10.0,Calm,Calm,-,N/A,,Clear,0,2013-01-10 07:53:00
1:53 AM,-0.9,-5.1,83,30.20,10.0,ENE,3.5,-,N/A,,Clear,70,2013-01-10 08:53:00
2:53 AM,-2.9,-6.0,87,30.21,10.0,ENE,3.5,-,N/A,,Clear,70,2013-01-10 09:53:00
3:53 AM,1.0,-4.0,79,30.16,10.0,ENE,3.5,-,N/A,,Clear,70,2013-01-10 10:53:00
4:53 AM,3.9,-0.0,84,30.12,10.0,Calm,Calm,-,N/A,,Clear,0,2013-01-10 11:53:00
5:53 AM,6.1,3.0,87,30.12,10.0,Calm,Calm,-,N/A,,Clear,0,2013-01-10 12:53:00
6:53 AM,10.0,6.1,84,30.12,10.0,Variable,4.6,-,N/A,,Clear,0,2013-01-10 13:53:00
7:53 AM,12.0,8.1,84,30.11,10.0,Calm,Calm,-,N/A,,Clear,0,2013-01-10 14:53:00
8:53 AM,14.0,10.0,84,30.05,10.0,Calm,Calm,-,N/A,,Clear,0,2013-01-10 15:53:00
9:53 AM,19.9,14.0,78,30.01,10.0,Calm,Calm,-,N/A,,Clear,0,2013-01-10 16:53:00
10:53 AM,24.1,15.1,69,29.98,10.0,Calm,Calm,-,N/A,,Clear,0,2013-01-10 17:53:00
11:53 AM,37.0,15.1,41,29.85,10.0,Calm,Calm,-,N/A,,Clear,0,2013-01-10 18:53:00
12:53 PM,39.9,16.0,38,29.80,10.0,SW,6.9,-,N/A,,Clear,220,2013-01-10 19:53:00
1:53 PM,39.9,15.1,36,29.78,10.0,SSW,19.6,25.3,N/A,,Mostly Cloudy,210,2013-01-10 20:53:00
2:53 PM,39.9,16.0,38,29.78,10.0,SSW,10.4,-,N/A,,Mostly Cloudy,210,2013-01-10 21:53:00
3:53 PM,37.9,19.9,48,29.76,10.0,SW,17.3,27.6,N/A,,Clear,220,2013-01-10 22:53:00
4:53 PM,36.0,21.9,57,29.72,10.0,South,16.1,21.9,N/A,,Clear,190,2013-01-10 23:53:00
5:53 PM,37.9,21.0,51,29.68,10.0,SE,6.9,23.0,N/A,,Clear,140,2013-01-11 00:53:00
6:53 PM,30.0,21.0,69,29.68,10.0,Variable,3.5,-,N/A,,Mostly Cloudy,0,2013-01-11 01:53:00
7:34 PM,35.6,21.2,56,29.55,10.0,South,11.5,23.0,N/A,,Mostly Cloudy,170,2013-01-11 02:34:00
7:53 PM,36.0,21.0,55,29.62,10.0,South,13.8,26.5,N/A,,Partly Cloudy,190,2013-01-11 02:53:00
8:53 PM,34.0,19.9,56,29.60,10.0,SSW,9.2,-,N/A,,Clear,210,2013-01-11 03:53:00
9:53 PM,37.0,19.9,50,29.50,10.0,South,21.9,29.9,N/A,,Mostly Cloudy,190,2013-01-11 04:53:00
10:53 PM,37.0,21.0,52,29.46,10.0,SSW,23.0,35.7,N/A,,Overcast,200,2013-01-11 05:53:00
11:53 PM,35.1,21.0,57,29.41,9.0,SSW,27.6,36.8,0.00,Snow,Light Snow,200,2013-01-11 06:53:00